Wind_Speed
17 14 13 14 10 8 7 13 9 5 3 1 2 2 3 5 7 5 3 9 13 16
20 16 15 11 9 4 6 7 8 6 3 0 2 1 2 4 4 1 2 2 8 13
19 16 15 11 12 10 8 8 9 6 3 2 2 3 4 4 5 1 3 5 6 5
19 17 14 12 11 11 8 7 7 7 4 4 2 3 2 1 3 2 1 6 5 7
20 19 17 15 13 11 10 9 8 7 4 2 2 4 5 6 3 3 5 8 8 11
21 19 18 16 15 13 12 9 8 7 6 5 4 5 5 6 6 7 8 11 13 14
21 19 18 17 15 14 12 12 10 7 7 6 6 7 7 8 8 8 11 13 16 18
22 20 18 17 16 14 13 10 11 9 9 7 7 10 14 8 7 11 15 17 19 20
22 21 19 17 15 14 11 9 9 9 8 8 9 4 5 8 11 15 17 20 19 20
20 18 18 16 15 13 12 10 9 8 8 8 9 11 9 11 14 16 20 23 21 18
21 19 18 17 15 14 12 11 10 9 9 9 9 12 13 13 15 17 21 23 19 11
23 21 20 18 16 14 12 11 10 10 9 8 10 12 12 12 13 18 21 25 6 3
23 21 21 19 17 16 13 12 10 12 10 10 11 11 8 11 13 13 15 6 5 7
24 22 21 18 17 15 14 11 12 10 9 11 10 6 9 10 4 7 10 15 6 4
Wind_Direction
159 158 164 177 166 181 173 133 137 139 151 37 355 66 29 74 63 65 42 38 18 356
164 166 166 171 155 143 126 149 162 165 140 300 305 231 234 103 96 88 353 47 20 5
169 162 150 157 171 169 183 106 144 168 185 211 245 213 250 173 141 160 31 21 345 322
165 160 155 163 175 172 173 183 178 192 197 205 218 210 239 254 181 235 306 316 307 312
161 162 164 173 179 178 180 187 197 196 211 203 198 187 218 252 13 323 311 315 319 309
163 166 170 175 176 175 181 182 197 193 208 217 183 203 233 266 284 301 306 299 293 297
167 171 172 178 178 186 192 192 193 201 212 213 214 224 230 245 256 276 289 301 303 303
170 173 177 182 185 193 201 209 208 200 213 214 233 243 233 241 268 287 294 298 299 303
171 173 181 186 187 197 203 211 216 214 224 218 228 185 212 271 285 287 289 291 295 302
175 178 181 185 191 195 205 208 217 236 239 237 238 259 280 290 291 294 294 296 306 307
178 182 182 188 196 196 197 206 223 232 240 247 259 257 265 283 287 297 296 298 298 297
179 182 182 189 196 193 196 208 226 234 246 248 249 269 266 276 286 296 306 301 272 268
184 185 181 190 186 193 201 218 224 225 231 241 247 270 284 314 309 314 333 14 27 73
183 188 183 183 182 196 210 228 214 256 242 236 255 246 298 306 325 316 338 322 143 51
Height
807 812 816 819 822 825 827 828 831 833 834 836 837 837 838 837 838 838 837 836 834 833
805 810 814 818 821 825 826 827 830 832 834 836 836 836 836 836 836 837 837 837 836 834
804 808 812 817 821 824 826 827 830 832 834 835 834 834 835 836 836 836 835 835 834 834
803 807 812 817 820 823 825 828 829 831 832 833 834 835 836 836 835 834 834 833 833 832
801 806 811 815 819 822 825 827 828 830 831 832 833 835 835 835 835 834 833 832 832 830
801 805 809 814 818 821 823 826 827 829 830 831 832 833 835 834 834 832 831 831 829 828
800 804 808 813 817 820 823 824 825 827 828 829 830 831 831 831 831 830 829 828 827 825
798 802 807 812 816 819 821 822 823 824 826 827 828 828 827 829 827 826 825 824 823 821
797 800 806 811 815 817 819 820 821 822 823 824 825 824 825 826 824 823 821 819 818 818
797 802 806 810 813 815 817 819 820 821 821 821 822 822 823 823 822 820 818 815 814 813
794 800 805 808 811 813 816 817 819 819 819 819 820 820 820 820 819 817 814 811 809 807
789 795 801 805 809 812 814 816 816 817 817 818 818 819 818 818 817 814 812 808 806 807
786 792 797 801 806 810 812 813 814 814 815 816 815 815 815 816 814 812 811 806 805 806
783 790 795 799 804 807 809 810 812 812 812 812 812 812 813 812 812 811 809 806 806 806